DECAYED

CZ-6A DEB, 61301 (Decayed)

Orbit data source: Space-Track

CZ-6A DEB, 61301 was space debris in LEO originally from a launch on Tue, 06 Aug 2024 UTC launched from the Taiyaun Space Center, China (TSC). Debris objects in space refer to the collection of defunct objects orbiting the Earth. Examples of debris include non-operational satellites, rocket bodies, and fragments generated from explosions, collisions, or faulty payload assembly.

Not visible in the next 10 days
Identifier
61301, 2024-140TN
Orbit
Decayed
Country
Flag of CNCN / PRC
Related business
Manufacturer
SAST
Mission
Decayed spacecraft
Bus & Motor
Unknown
Mass
Unknown
Launch date (UTC)
2024-08-06 (1 year ago)
Launch vehicle
Unknown
Launch site
Taiyaun Space Center, China (TSC)
Object type
Payload
Rocket body
Debris
Shape & HBR
Unknown shape, 1.1 m
Radar Cross Section
Small (<0.1 m²)

Expand to show TLE details & history
Last TLE update: 8 months ago

TLE from 8 months ago
0 CZ-6A DEB
1 61301U 24140TN  25100.63277500  .06991354  96824-1  29331-1 0  9996
2 61301  89.2560 329.5577 0018690 208.2647 151.7626 15.92085286 33587
Epoch: 2025-04-10T15:11Z
TLE epoch observation values (Epoch: 2025-04-10T15:11:11.759Z)
Latitude
0.00001°
Longitude
-97.34365°
Altitude
310.743 km
Speed
7.715 km/s
True Right ascension
21h 58m 13s
True Declination
0° 00' 00"
Sunlit
Object was in daylight at epoch
Visualization orbit readout
Latitude
Unknown
Longitude
Unknown
Altitude
Unknown
Speed
Unknown
Apparent Right ascension
Unknown
Apparent Declination
Unknown
Sunlit
N/A
Visualization observer readout
Local Sidereal Time
14:33:25
Azimuth
Unknown
Elevation
Unknown
Doppler factor
Unknown
Orbital elements
Apogee altitude
305.625 km
Perigee altitude
280.687 km
Semi-major axis
6,671.293 km
Eccentricity
0.00187
Inclination
89.256°
RAAN
329.5577°
Arg. of periapsis
208.2647°
True anomaly
151.86372°
Mean anomaly
151.7626°
Eccentric anomaly
151.81318°
Mean motion
3.98316 °/min
Orbital period
90.38 mins
BSTAR
0.029331
Loading maneuver chart data...
Computing Atmospheric mass density...
Loading historical data...
Loading historical data...
Loading historical data...
Loading historical data...
Loading historical data...
Loading historical data...
Loading historical data...

Documentation

Showing up to 5 results
|